Flag Weather past 2 weeks in Whitby, Ontario, Canada

Now
32 °F

Overcast.


Feels Like: 26 °F
Forecast: 30 / 35 °F
Wind: 6 mph from Northeast

Location: Toronto Buttonville

Current Time: Nov 26, 2014 at 7:28:17 PM

Latest Report: Nov 26, 2014 at 7:00 PM


Visibility: 15 mi

Pressure: 30.11 "Hg

Humidity: 69%

Dew point: 23 °F

Location of WhitbyLocation

Historic Weather in Whitby — Graph

°F

Whitby temperature yesterday

Maximum temperature yesterday: 39 °F (at 12:00 AM)
Minimum temperature yesterday: 34 °F (at 3:00 PM)
Average temperature yesterday: 36 °F

Past Weeks' High & Low Weather Summary

 TemperatureHumidityPressure
High61 °F (Nov 24, 1:00 PM)100% (Nov 17, 12:00 AM)30.45 "Hg (Nov 17, 12:00 AM)
Low16 °F (Nov 18, 6:00 AM)46% (Nov 20, 3:00 PM)29.13 "Hg (Nov 24, 1:00 PM)
Average32 °F74%29.96 "Hg
* Reported Nov 11 6:00 PM — Nov 26 6:00 PM, Whitby, Weather by CustomWeather, © 2014

Note: Actual official high and low records may vary slightly from our data, if they occured in-between our weather recording intervals... More about our weather records

Advertising

Whitby weather history for previous 24 hours

 ConditionsComfort  
Time TempWeatherWind HumidityBarometerVisibility
6:00 PM
Nov 26
32 °FOvercast.6 mph75%30.12 "Hg15 mi
5:00 PM34 °FOvercast.7 mph65%30.12 "Hg15 mi
4:00 PM34 °FOvercast.6 mph65%30.14 "Hg15 mi
3:00 PM34 °FOvercast.5 mph70%30.17 "Hg15 mi
2:00 PM34 °FOvercast.6 mph65%30.17 "Hg15 mi
1:00 PM34 °FOvercast.7 mph65%30.17 "Hg15 mi
12:00 PM34 °FOvercast.6 mph65%30.19 "Hg15 mi
11:00 AM34 °FOvercast.8 mph65%30.18 "Hg15 mi
10:00 AM34 °FOvercast.6 mph65%30.21 "Hg15 mi
9:00 AM34 °FScattered showers. Overcast.3 mph65%30.24 "Hg15 mi
8:00 AM32 °FScattered showers. Overcast.No wind69%30.23 "Hg15 mi
7:00 AM32 °FPassing clouds.3 mph69%30.22 "Hg15 mi
6:00 AM32 °FOvercast.2 mph75%30.24 "Hg15 mi
5:00 AM32 °FOvercast.No wind80%30.22 "Hg15 mi
4:00 AM32 °FOvercast.No wind80%30.23 "Hg15 mi
3:00 AM32 °FOvercast.3 mph80%30.19 "Hg15 mi
2:00 AM32 °FOvercast.5 mph80%30.22 "Hg15 mi
1:00 AM32 °FOvercast.2 mph87%30.22 "Hg12 mi
12:00 AM32 °FMostly cloudy.5 mph87%30.22 "Hg10 mi
11:00 PM
Nov 25
34 °FOvercast.3 mph75%30.20 "Hg12 mi
10:00 PM34 °FPassing clouds.7 mph70%30.16 "Hg15 mi
9:00 PM34 °FPassing clouds.7 mph70%30.14 "Hg15 mi
8:00 PM34 °FPassing clouds.8 mph70%30.11 "Hg15 mi
7:00 PM34 °FPassing clouds.13 mph70%30.08 "Hg15 mi
Weather by CustomWeather, © 2014

See weather overviewHow to use our weather pages